Regional Weather Roundup
Issued by NWS

Home | Current Version | Previous Version | Graphics & Text | Print | Product List | Glossary On
Versions: 1 2 3 4 5 6 7 8 9 10 11 12 13 14 15 16 17 18 19 20 21 22 23 24 25 26 27 28 29 30 31 32 33 34 35 36 37 38 39 40 41 42 43 44 45 46 47 48 49 50
518
ASUS43 KFSD 201410
RWRSD

WEATHER ROUNDUP FOR SOUTH DAKOTA
NATIONAL WEATHER SERVICE SIOUX FALLS SD
900 AM CDT THU JUL 20 2017

NOTE: "FAIR" INDICATES FEW OR NO CLOUDS BELOW 12,000 FEET WITH NO
SIGNIFICANT WEATHER AND/OR OBSTRUCTIONS TO VISIBILITY.


SDZ001>005-009-010-012>017-201500-
NORTHWEST AND NORTH CENTRAL SOUTH DAKOTA

CITY           SKY/WX    TMP DP  RH WIND       PRES   REMARKS
BUFFALO          N/A     75  66  73 SE17      29.97F
FAITH            N/A     74  69  85 S13       30.05F
MOBRIDGE       FOG       70  69  97 S5        30.03R VSB 1/4
$$

SDZ012>016-024>037-041>051-057-063-072>074-201500-
SOUTHWEST AND SOUTH CENTRAL SOUTH DAKOTA

CITY           SKY/WX    TMP DP  RH WIND       PRES   REMARKS
RAPID CTY ARPT SUNNY     74  66  76 SE3       30.09S
PIERRE         CLOUDY    76  67  73 E6        30.00S
CUSTER         CLOUDY    73  60  63 CALM      30.24R
ELLSWORTH AFB  SUNNY     75  68  77 S8        30.09R
PHILIP         SUNNY     77  70  79 SE14      30.03S
PINE RIDGE     CLOUDY    71  68  90 SW7       30.11S
SPEARFISH      FAIR      75  59  57 NE9       30.10S
WINNER         FAIR      76  72  87 S3        30.03R
$$

SDZ004>011-016>023-039-040-201500-
NORTHEAST SOUTH DAKOTA

CITY           SKY/WX    TMP DP  RH WIND       PRES   REMARKS
ABERDEEN       CLOUDY    69  69 100 SE3       30.04R FOG
WATERTOWN      CLOUDY    69  67  93 CALM      30.04R
BROOKINGS      CLOUDY    74  67  78 E8        30.04R
SISSETON         N/A     73  70  90 N5        30.02R
$$

SDZ017-020-022-023-036>040-048>070-201500-
SOUTHEAST SOUTH DAKOTA

CITY           SKY/WX    TMP DP  RH WIND       PRES   REMARKS
SIOUX FALLS    CLOUDY    75  70  84 NE13      30.00S
HURON          CLOUDY    73  71  93 N3        30.01F
CHAMBERLAIN    CLOUDY    78  72  82 NE3       30.00R
MITCHELL       PTSUNNY   75  72  90 NE10      29.99F
YANKTON        CLOUDY    75  70  84 E7        30.00R
$$

ABBREVIATIONS USED IN REMARKS
   TC - TEMPERATURE IN CELSIUS
  WCI - WIND CHILL INDEX
   HX - HEAT INDEX
  VSB - VISIBILITY





USA.gov is the U.S. government's official web portal to all federal, state and local government web resources and services.